GFSCGP_sfc_dewp_318.txt.gz
Dewpoint
52 50 49 48 52 53 50 48 47 46 48 44 48 46 55 55 56 48 50 52 53 54 55 56 56 57 58 61 65 70 70 76 72 72 69 70 67 67 66 66 72 74 73 71
51 52 52 49 50 47 46 49 49 46 49 43 45 45 52 53 54 49 49 51 52 52 54 58 59 59 60 62 66 69 72 74 74 72 72 72 71 69 68 68 77 75 75 76
54 55 52 48 45 44 54 50 50 45 45 50 51 49 52 53 52 51 53 52 52 52 52 58 60 62 62 65 65 68 71 74 74 74 73 76 76 74 73 75 74 75 75 76
54 50 47 42 42 46 47 48 50 49 42 47 53 46 53 55 52 49 50 51 52 52 53 57 60 61 62 64 67 69 71 73 74 75 74 76 75 70 71 72 75 75 75 74
55 49 47 43 42 41 47 48 49 49 47 41 47 44 56 58 55 56 50 50 51 53 53 54 57 61 61 64 65 69 72 72 74 74 75 74 75 73 72 72 73 74 74 74
47 47 46 45 44 41 43 46 46 44 39 39 48 44 49 52 54 52 49 51 50 52 54 55 57 60 60 63 65 68 73 74 75 77 75 74 72 72 69 70 70 73 73 71
44 44 44 47 43 41 41 39 35 41 45 43 49 47 48 56 54 50 48 47 51 53 53 55 58 59 61 61 63 67 72 74 74 72 71 71 70 69 68 68 68 70 67 66
41 38 41 44 52 51 43 39 35 36 28 44 50 46 44 52 54 49 53 54 55 54 53 53 54 56 60 68 72 73 72 71 70 68 69 69 69 68 68 68 66 66 65 64
42 39 48 42 48 47 33 29 29 27 29 27 42 45 47 52 58 56 55 56 58 63 65 66 66 67 68 69 70 70 69 68 67 67 68 68 67 66 65 65 65 64 64 63
47 42 37 37 33 24 19 21 20 22 32 31 29 33 41 49 54 53 58 59 61 64 65 67 67 67 67 68 69 68 67 67 67 67 67 66 66 66 66 65 64 63 62 61
17 20 18 18 21 17 17 15 19 14 15 22 20 21 36 50 50 52 54 61 62 63 64 65 66 66 67 68 67 67 67 67 67 67 66 65 65 64 64 63 63 62 61 61
15 12 15 12 14 15 14 16 14 15 23 17 17 26 46 50 58 57 59 61 61 62 63 65 65 65 65 66 67 66 66 67 67 67 66 65 64 63 63 62 62 62 61 61
20 19 15 16 11 13 19 16 14 13 13 21 13 23 52 57 59 58 60 61 61 63 63 63 63 63 64 64 64 65 65 65 65 65 65 63 63 61 61 61 61 61 60 60
35 15 17 11 18 17 18 18 18 17 19 19 17 37 50 54 55 58 59 60 61 62 62 62 62 63 64 65 65 65 64 64 64 63 61 62 62 61 61 61 60 60 60 59
22 23 22 21 20 20 20 19 19 20 19 17 20 21 41 53 57 58 59 61 61 62 62 62 62 62 63 64 65 64 63 63 63 64 63 63 62 63 62 61 60 59 59 58
29 32 31 28 25 25 23 22 23 22 22 22 23 25 50 57 58 59 59 60 61 61 61 62 63 63 62 64 63 63 63 63 63 63 63 64 64 64 63 61 60 60 60 61
29 30 32 29 28 29 28 29 28 29 25 24 23 37 55 51 53 59 58 58 58 58 60 61 62 63 63 63 63 63 63 63 64 63 64 64 63 62 62 62 61 61 62 62
33 39 34 29 32 28 29 30 31 31 28 37 41 55 56 51 52 58 60 58 58 58 60 62 63 63 64 63 62 63 62 64 63 63 62 62 62 62 63 62 61 63 62 62
29 31 30 29 27 30 28 31 31 32 33 49 47 50 53 58 52 58 58 58 58 59 59 62 62 62 63 61 62 62 61 61 60 60 62 62 62 63 62 62 61 59 59 63
29 33 29 31 29 29 38 32 34 30 27 48 48 45 50 50 52 58 60 58 58 59 61 61 60 59 60 61 61 61 61 61 60 61 62 63 64 63 63 64 65 64 64 62
31 39 36 29 27 30 37 36 32 28 40 45 50 51 50 54 57 56 56 59 60 61 62 62 59 57 59 61 61 61 60 60 61 61 62 63 63 64 64 65 66 66 63 64
33 38 35 37 38 31 41 37 37 48 46 44 46 53 57 55 59 57 56 59 57 59 59 58 56 56 59 61 61 62 61 63 63 62 62 63 64 60 59 63 65 64 65 63
33 36 43 44 48 51 45 47 46 45 47 47 51 50 53 50 50 53 59 60 59 60 61 56 54 58 59 61 61 62 64 64 64 63 63 63 63 63 58 64 62 59 62 59
41 47 38 47 47 47 40 43 44 43 46 47 48 48 48 49 51 52 55 59 61 61 59 54 54 57 60 61 61 62 64 63 63 62 63 63 62 61 62 59 58 58 56 55
42 45 44 45 47 44 40 41 45 45 46 45 43 42 42 43 51 52 56 55 59 61 59 57 58 60 61 62 62 61 63 63 61 61 60 59 56 58 57 60 55 55 59 55
41 47 44 44 47 44 49 45 45 46 44 43 42 43 43 40 43 52 57 58 59 60 61 61 61 62 61 62 62 63 64 64 62 60 56 52 50 50 52 56 58 53 49 48

GFSCGP_sfc_dewp_321.txt.gz
Dewpoint
57 49 49 54 56 52 49 48 50 52 52 49 51 50 53 57 56 55 52 53 54 54 55 55 56 56 62 62 63 63 65 67 70 68 67 66 66 66 64 64 69 70 70 70
55 50 52 55 52 50 49 51 52 53 52 49 52 55 55 56 57 59 59 53 54 54 54 54 56 56 59 63 64 65 65 68 70 68 69 67 66 68 68 67 71 71 72 72
55 54 52 53 53 51 54 51 52 51 50 55 52 52 56 59 61 63 62 62 54 52 54 55 56 56 59 61 64 67 67 70 70 68 69 70 70 68 70 71 73 72 73 73
54 55 52 53 55 54 50 53 49 48 48 48 54 48 55 56 58 62 62 64 59 53 56 56 57 58 58 61 63 65 68 71 70 70 70 69 69 68 70 71 71 72 73 72
50 51 54 54 52 50 45 50 50 45 47 51 52 51 53 56 54 58 60 60 59 57 55 57 58 59 60 61 62 65 66 69 70 69 70 71 70 70 71 70 71 72 71 70
53 52 52 47 46 44 46 47 45 49 49 46 49 50 50 52 55 55 56 56 58 58 58 58 58 60 62 62 62 65 66 69 72 72 71 70 68 68 68 68 70 71 69 68
49 44 47 48 45 46 50 52 43 43 45 45 52 50 46 53 55 56 57 59 61 61 55 58 58 59 61 62 63 66 69 72 71 70 69 68 68 68 67 67 69 68 67 66
43 40 46 49 51 50 46 47 40 34 32 43 51 46 45 54 57 52 52 59 65 64 63 64 58 60 67 68 64 70 70 68 68 67 67 68 67 67 67 66 66 66 65 64
43 40 47 43 49 49 38 37 40 23 24 27 46 46 55 56 54 53 54 54 64 67 66 66 68 69 70 69 68 68 67 66 65 66 66 66 65 65 65 64 65 63 63 61
47 38 32 37 43 46 43 32 16 21 23 26 34 41 46 52 49 51 50 51 64 65 65 65 66 67 67 66 65 65 65 65 65 65 65 65 64 65 64 63 62 61 61 59
41 33 18 18 16 22 34 34 16 17 20 16 20 38 49 50 48 47 47 61 62 64 65 65 66 66 65 65 65 65 65 65 65 65 64 64 64 64 63 62 61 60 59 58
22 13 17 15 16 16 18 20 18 19 20 20 21 48 53 50 50 51 60 61 61 64 64 64 65 66 65 65 64 65 66 66 67 65 64 64 63 62 61 61 62 62 61 60
28 23 18 19 17 18 19 21 20 19 22 22 23 49 55 52 58 60 59 60 62 62 63 63 63 64 64 64 64 64 65 64 64 64 64 63 62 61 60 61 61 60 59 58
32 16 18 17 18 21 23 21 21 20 23 21 25 54 57 57 58 58 59 61 61 62 62 62 62 62 63 63 63 63 63 63 62 63 62 61 61 61 60 60 59 59 59 58
22 23 26 24 24 23 23 23 23 21 21 25 22 48 55 56 58 58 59 59 60 61 62 62 62 63 63 64 64 63 63 64 63 62 61 62 61 60 60 59 59 58 57 57
30 32 34 31 30 29 29 29 29 28 23 25 24 53 56 52 59 59 59 60 61 61 61 61 62 62 64 62 62 62 62 63 63 63 63 62 62 61 60 59 57 56 56 56
30 33 35 33 33 31 29 31 32 32 34 37 37 52 53 53 58 59 60 60 61 61 61 62 63 63 63 62 62 62 62 62 62 62 62 62 61 60 58 57 56 56 56 57
31 38 37 32 35 30 31 32 34 32 46 54 52 50 50 52 54 56 61 61 61 61 61 61 62 63 63 62 63 63 63 62 61 61 60 60 59 58 59 58 58 58 58 58
34 36 34 32 31 31 32 36 38 38 42 52 52 53 52 54 55 56 58 63 62 61 61 62 63 63 62 62 62 62 62 62 61 60 59 59 59 59 59 58 57 58 58 56
40 38 33 31 31 29 39 41 42 36 40 47 51 51 52 55 50 52 59 55 59 61 62 62 62 62 59 60 59 56 56 56 57 58 59 59 59 58 58 57 57 57 56 56
39 39 36 36 34 36 45 46 37 33 44 47 48 57 54 52 56 57 57 58 60 61 61 61 58 58 58 58 57 57 57 58 56 59 58 59 58 56 56 57 58 58 56 56
39 38 39 42 42 39 49 46 46 46 48 52 54 57 58 57 55 54 55 59 60 60 61 59 57 58 57 58 59 58 54 57 56 56 57 57 57 58 57 58 58 57 57 56
38 43 44 44 45 50 51 49 51 51 47 54 55 56 58 55 53 54 55 60 61 60 60 56 55 57 57 59 58 59 58 59 57 57 57 57 58 58 58 58 58 58 58 57
43 48 47 49 51 49 50 52 52 47 50 50 52 50 54 55 58 58 60 61 60 60 56 53 56 57 57 58 59 60 61 59 58 58 58 58 58 58 59 58 58 58 56 55
46 48 46 46 50 52 50 48 49 49 51 48 47 47 47 53 55 56 56 60 61 59 56 54 55 57 58 59 59 59 61 59 58 58 58 58 59 58 57 58 57 57 55 54
50 47 45 44 52 52 50 52 49 49 48 47 47 47 43 46 51 55 54 56 60 59 56 55 57 58 60 60 60 59 59 61 59 58 57 56 52 52 52 54 55 55 52 50

GFSCGP_sfc_dewp_324.txt.gz
Dewpoint
60 51 52 57 57 56 50 48 50 50 52 52 52 54 53 59 59 58 58 54 54 54 55 54 53 60 61 62 63 64 65 65 65 67 66 66 64 65 65 63 66 71 70 69
55 48 54 54 54 54 51 50 49 52 55 53 55 55 57 59 58 60 61 60 59 58 55 54 54 60 60 61 62 64 64 65 66 66 66 64 64 66 70 72 71 72 73 73
53 53 54 52 52 53 53 51 48 48 53 56 55 54 56 57 60 62 62 62 61 62 56 55 55 60 60 60 61 63 64 66 68 67 67 69 69 69 70 71 72 72 72 73
54 53 52 53 51 51 52 53 51 48 50 49 55 48 55 56 57 60 61 61 60 62 61 58 56 59 60 60 61 62 66 65 68 67 67 66 67 68 69 70 71 71 71 71
50 48 54 52 53 55 52 52 49 48 49 52 52 49 51 56 54 57 59 59 62 63 62 61 57 57 59 62 62 63 65 66 67 68 69 70 70 70 70 69 70 70 70 70
56 53 53 52 51 54 54 51 51 51 52 46 49 49 46 49 52 54 58 61 63 65 65 63 58 57 60 63 63 64 66 69 70 71 71 69 69 69 68 68 70 69 68 67
53 52 49 49 51 50 51 51 45 42 43 43 50 47 44 53 55 56 60 57 62 62 62 63 58 60 59 62 63 66 69 70 70 69 69 69 68 68 67 67 69 68 66 65
46 43 45 49 48 46 45 48 42 37 36 38 50 46 47 55 52 57 57 58 58 62 62 57 61 60 60 62 65 67 69 69 67 67 67 67 67 66 66 67 67 66 65 63
43 40 47 48 51 43 44 42 42 36 25 41 45 48 55 57 52 53 58 59 55 56 64 66 68 68 67 67 68 69 67 66 66 66 67 65 65 65 65 64 64 63 62 62
39 35 40 40 44 45 41 40 29 19 18 13 33 41 41 53 52 53 52 63 64 64 65 65 65 65 65 65 66 66 65 65 65 66 65 64 65 64 64 63 62 62 59 58
44 24 15 19 35 26 21 38 31 22 18 15 17 32 49 51 49 50 61 62 63 64 64 65 64 64 65 65 64 64 64 63 64 63 64 64 64 63 62 60 60 60 57 57
28 15 19 18 20 17 19 20 19 19 17 19 22 43 53 50 48 60 60 60 62 63 64 65 65 64 64 64 65 65 65 64 64 62 63 63 62 62 61 61 59 59 58 57
22 15 13 13 14 16 21 23 21 20 21 21 35 40 52 52 56 60 59 59 60 62 63 63 64 64 63 63 64 65 65 65 65 63 62 62 61 60 61 61 61 60 58 57
33 17 14 14 15 18 21 25 24 23 20 20 32 52 51 50 58 58 58 59 61 62 62 62 62 63 64 64 64 64 63 62 62 63 62 61 61 60 60 60 59 58 58 57
21 20 32 24 27 29 29 30 30 26 23 20 26 50 53 53 58 58 59 60 60 61 61 62 62 63 64 64 64 63 63 62 61 61 60 61 61 60 60 58 58 58 57 56
30 26 39 28 31 30 30 30 31 31 31 35 53 52 56 59 58 58 59 60 60 61 61 62 62 62 64 64 63 62 63 63 62 61 61 61 60 59 58 58 57 55 55 54
28 29 30 27 30 30 27 28 29 32 46 45 40 52 58 58 58 58 59 60 60 61 61 61 62 62 64 62 62 61 62 62 62 62 62 60 60 59 58 57 55 54 54 54
29 30 34 30 33 27 29 33 33 50 52 53 53 55 57 56 55 56 61 61 61 62 62 61 62 63 63 62 61 62 62 61 61 60 60 60 59 58 57 56 55 55 55 55
34 34 31 29 30 30 30 35 38 39 50 53 50 49 52 55 54 51 58 62 62 63 62 62 63 63 62 62 62 62 61 60 60 59 59 59 58 57 57 56 56 56 56 57
37 37 33 29 26 26 35 42 46 41 45 52 50 49 52 55 46 49 55 61 62 63 62 62 62 62 62 62 62 60 60 60 59 59 58 58 58 58 58 57 57 57 57 53
38 36 33 34 33 34 44 45 44 32 37 52 54 51 53 54 52 53 55 56 55 62 63 63 62 61 61 59 59 57 55 56 57 58 58 58 58 57 57 56 56 56 55 55
37 36 37 39 37 31 46 41 43 49 52 53 53 52 52 53 54 57 54 55 56 61 61 61 60 58 57 56 55 54 55 56 55 58 57 57 57 56 55 55 55 58 55 54
36 38 39 40 39 46 49 47 50 52 53 56 57 56 52 53 56 57 57 60 61 61 61 59 57 55 55 57 56 56 54 57 55 55 55 56 56 56 56 55 56 55 55 55
40 46 47 44 45 46 49 51 52 53 53 58 58 59 57 54 55 57 60 61 60 61 59 56 55 54 55 57 57 57 56 58 56 55 55 56 56 56 57 57 55 56 56 55
42 45 44 45 47 49 51 51 54 55 55 54 51 54 56 56 56 59 58 56 53 60 57 54 55 55 55 57 57 58 60 58 56 56 56 57 57 57 57 57 57 57 56 55
48 44 42 41 48 49 49 53 58 55 53 51 43 43 48 55 58 59 59 59 58 59 55 53 54 55 55 56 56 58 60 58 57 56 57 57 55 52 51 52 53 54 53 51

GFSCGP_sfc_dewp_327.txt.gz
Dewpoint
58 52 53 55 52 54 55 53 49 51 53 53 55 54 55 57 55 55 55 54 54 54 53 53 55 58 61 62 63 64 66 66 68 67 66 66 64 65 65 64 65 69 70 70
52 50 54 56 55 54 54 53 49 52 54 54 55 54 56 58 57 57 57 59 56 55 54 52 54 58 60 62 63 63 64 65 66 67 66 64 64 67 71 72 70 71 70 70
51 51 54 54 53 53 52 51 48 50 53 55 56 51 55 58 60 62 61 62 62 58 55 52 53 58 59 61 62 63 64 64 64 66 66 67 69 69 69 70 71 72 73 72
52 53 54 51 51 53 51 53 51 49 51 48 55 46 52 55 56 58 61 63 62 62 61 60 53 58 59 60 61 63 64 65 65 66 66 67 67 67 68 69 70 71 71 72
52 54 54 53 52 55 52 54 50 48 49 52 53 49 50 55 52 55 58 61 61 62 63 62 58 57 60 62 62 62 63 65 65 66 66 67 67 68 69 70 69 69 69 69
54 54 55 54 54 55 53 52 52 51 52 47 49 49 45 49 52 54 60 61 63 65 65 65 64 62 65 66 65 63 65 65 66 68 69 69 69 68 69 68 69 67 67 67
52 54 55 52 50 52 51 50 44 41 44 43 49 46 43 51 55 55 59 60 62 62 61 61 61 63 62 65 65 66 68 68 68 69 69 69 68 69 68 68 68 67 66 65
46 44 45 49 47 49 47 46 40 36 38 37 49 44 44 54 55 59 57 61 61 61 56 60 63 65 60 63 66 67 69 69 69 68 67 67 67 67 67 68 67 67 65 63
46 45 46 48 50 41 44 42 42 38 35 40 43 46 54 51 55 58 58 56 57 64 65 65 65 65 66 62 65 67 68 67 66 67 67 67 67 66 66 65 65 65 64 62
44 37 40 42 44 43 43 40 35 31 22 15 22 42 42 52 50 54 60 56 62 63 64 64 64 64 64 66 67 67 67 66 66 66 66 66 65 66 65 65 64 63 60 59
35 20 16 29 37 21 23 23 27 27 20 21 18 22 49 53 50 51 60 63 64 63 64 64 64 64 64 64 65 65 65 64 64 64 65 64 64 64 64 63 62 59 57 56
26 15 17 16 20 20 23 24 19 19 17 20 21 32 51 50 53 58 60 62 64 64 64 64 64 64 64 64 64 64 64 64 64 64 64 64 63 62 61 60 59 57 56 56
17 15 15 17 19 16 20 23 30 20 21 19 24 31 50 58 59 59 60 61 62 63 63 63 63 63 63 64 65 64 64 64 63 64 63 62 61 60 60 61 60 60 57 56
33 16 17 18 18 17 24 29 26 22 21 22 25 34 49 55 57 58 59 60 62 62 62 62 63 63 63 64 64 64 63 64 63 62 61 61 60 60 60 60 59 58 56 56
22 24 21 22 21 24 27 29 30 30 28 24 27 36 45 51 57 57 58 60 61 61 62 62 62 63 63 63 63 63 63 61 63 62 61 61 60 60 60 59 58 57 56 55
29 26 38 28 28 30 29 29 29 29 30 26 37 42 55 58 58 58 58 59 59 60 61 62 62 62 63 63 62 62 62 62 60 60 60 61 60 60 58 57 57 56 55 54
28 28 29 29 30 30 27 27 28 30 46 48 44 46 57 57 58 58 59 59 59 60 60 61 62 62 64 63 62 62 62 62 61 61 61 60 59 58 57 56 55 53 53 53
29 30 31 29 33 27 29 37 38 49 52 53 54 57 57 56 56 57 58 59 60 61 61 61 62 62 63 61 61 61 62 62 60 60 59 59 58 57 57 55 54 53 53 53
34 33 33 31 29 29 29 38 40 41 46 54 54 52 54 55 54 55 58 61 61 62 62 61 62 63 61 61 61 61 60 59 59 59 58 58 58 57 56 55 54 53 54 54
37 35 32 30 29 26 30 40 46 46 41 52 52 52 52 52 48 50 55 61 62 64 63 62 63 62 62 61 61 60 59 59 58 59 59 59 58 57 56 56 55 55 55 56
38 36 33 33 33 33 36 44 43 32 34 52 53 54 54 52 49 51 55 57 62 62 62 63 62 62 61 61 61 59 58 58 59 59 59 58 58 57 57 57 56 55 55 55
38 36 35 38 35 32 44 40 40 45 51 55 55 55 55 54 54 55 55 54 58 62 62 62 61 61 60 60 60 57 56 58 57 58 58 58 57 57 56 55 55 55 55 54
37 37 37 38 37 41 49 46 50 51 52 54 53 52 52 55 53 54 54 54 56 61 61 61 60 58 58 57 58 56 55 55 55 56 56 56 56 56 55 55 54 54 54 54
40 46 45 43 43 45 47 51 52 52 51 56 55 53 56 55 54 56 57 57 59 60 59 59 57 57 56 56 55 55 54 56 54 54 54 55 55 55 56 56 55 55 55 54
41 45 43 43 45 47 50 50 55 55 56 56 57 56 56 58 56 57 58 59 59 60 58 57 56 55 55 56 56 56 55 57 54 54 54 54 55 55 55 56 56 56 56 55
45 44 43 41 44 48 48 51 56 55 54 53 50 51 58 57 55 58 58 58 55 58 57 55 55 54 54 55 56 56 58 57 56 54 55 55 56 56 55 53 51 52 53 51

GFSCGP_sfc_dewp_330.txt.gz
Dewpoint
57 50 51 49 52 54 54 53 51 51 53 53 54 53 53 56 55 54 54 54 55 55 56 56 56 56 58 62 64 64 65 67 66 67 67 67 67 68 68 68 70 72 71 71
50 48 53 55 54 54 54 54 51 52 54 53 53 53 54 55 55 55 54 55 55 55 54 54 55 57 59 61 63 64 65 67 66 67 67 67 67 67 69 70 69 68 70 71
49 50 54 53 53 52 51 51 49 46 53 56 54 50 54 58 59 57 57 57 58 56 56 55 55 57 60 62 63 63 65 66 68 68 67 68 69 70 71 71 72 72 73 72
50 54 54 52 52 52 49 53 52 49 50 46 54 44 50 54 57 59 60 62 61 61 61 60 53 57 59 61 62 64 65 66 67 68 67 67 67 68 69 71 71 71 72 73
51 53 53 52 52 53 49 53 52 50 50 50 52 47 48 54 53 55 59 62 62 62 62 58 55 55 59 62 62 63 65 66 66 67 67 67 67 68 70 70 70 69 69 70
52 55 54 54 53 54 54 52 51 50 50 44 47 48 46 46 52 53 57 59 62 62 62 62 63 59 62 65 64 65 65 66 67 67 67 67 67 68 69 70 68 68 67 67
55 54 55 54 52 53 51 47 41 39 43 43 48 47 46 48 53 54 57 60 62 64 64 64 63 62 63 64 65 64 66 67 68 68 68 69 68 68 68 68 69 67 67 66
46 43 49 50 50 50 50 46 39 35 36 38 48 45 43 54 53 58 59 61 61 62 63 66 66 66 62 64 65 65 66 68 68 68 68 68 68 68 68 68 68 67 66 65
46 45 46 48 49 43 45 43 43 38 33 36 37 44 45 54 53 58 58 57 60 64 64 64 64 65 65 64 66 66 68 68 68 68 68 68 67 66 66 66 65 65 65 63
49 46 38 43 45 44 41 40 33 29 27 23 23 33 37 47 50 54 59 57 61 63 63 62 63 64 65 66 66 67 68 66 66 66 66 66 66 66 66 65 64 63 62 60
37 36 35 29 35 18 23 22 28 28 24 24 20 19 38 49 52 52 56 62 62 63 64 64 64 64 64 66 66 66 65 65 66 66 66 65 65 65 65 64 62 61 59 58
31 17 17 16 19 20 23 21 20 21 19 20 21 22 50 50 51 52 59 62 62 63 63 63 63 64 64 64 64 64 65 65 65 65 64 63 63 63 62 62 60 59 57 57
18 15 15 17 21 19 22 24 21 21 21 20 21 24 50 58 56 54 60 61 62 63 64 63 63 63 64 63 63 63 64 64 64 64 63 63 62 61 60 59 58 58 58 57
32 16 19 19 21 21 25 29 28 25 24 24 25 30 35 51 56 57 59 59 62 62 63 63 62 63 63 64 64 63 63 63 64 63 62 61 61 60 61 61 60 59 58 57
25 24 21 22 21 21 25 28 29 25 27 26 28 27 30 43 55 56 59 60 62 60 60 62 62 62 63 63 63 63 63 63 62 62 61 60 61 61 61 60 59 58 58 57
29 26 27 28 29 29 29 29 30 30 31 27 28 38 46 55 57 58 58 59 60 61 62 62 63 62 63 63 62 62 62 62 62 61 60 60 60 60 60 59 58 58 57 57
29 29 28 26 29 30 29 29 29 30 35 40 41 41 56 57 57 57 57 58 59 60 60 61 62 63 63 63 63 62 62 61 61 60 61 61 61 59 58 58 57 57 56 55
29 30 30 29 32 28 30 38 37 34 48 52 52 52 57 57 57 58 59 59 60 60 61 61 63 63 64 62 62 62 62 62 61 60 60 59 59 58 57 57 55 54 55 55
32 33 33 31 30 30 31 46 42 43 37 52 53 56 56 56 55 57 60 61 61 61 61 62 62 63 62 61 61 62 61 61 60 60 59 59 59 58 57 56 55 55 55 56
37 35 33 30 30 28 32 41 46 47 38 47 54 53 53 53 51 50 54 58 62 62 62 62 63 63 62 61 61 60 60 60 59 59 60 60 59 59 58 57 56 57 57 57
37 37 34 33 31 34 36 42 45 35 37 51 53 53 53 52 53 52 56 58 62 63 63 63 63 62 62 61 61 59 59 59 60 60 60 60 59 59 58 58 58 58 58 57
37 36 35 37 35 33 43 43 39 43 51 53 54 54 53 53 55 55 56 57 61 62 62 62 62 62 62 61 60 59 59 60 60 60 60 59 59 58 58 59 58 58 58 57
37 38 37 38 38 41 48 47 49 51 51 54 54 54 55 54 55 55 54 56 58 62 62 62 62 61 61 61 60 59 59 59 59 59 59 59 59 59 58 57 57 55 56 56
42 44 44 44 44 45 47 51 52 52 52 53 55 55 54 52 55 54 56 55 55 60 61 61 61 60 60 60 60 59 58 57 57 57 57 58 58 57 57 56 56 55 56 56
42 44 43 44 44 45 48 50 52 55 56 55 56 55 56 57 57 56 56 57 57 59 60 60 60 60 60 58 58 58 57 56 55 56 56 56 56 56 56 57 57 57 58 56
44 44 42 41 44 46 46 50 54 56 55 53 54 52 53 58 57 57 57 58 59 60 59 58 58 58 58 58 57 57 56 57 56 55 55 55 55 56 56 57 57 53 53 50